Погода в Червеньске

Польша     52°01′06″N   15°24′16″E
темп.,
°C
ветер,
м/с
пор.,
м/с
влажн.,
%
обл.,
%
осадки,
мм/ч
давл.,
гПа
погр.,
м
25 февраля, чт
чт2501:00+8юз23890 0.0 103143
04:00+8юз23870 0.0 102944
07:00+7ююз23860 0.0 102930
10:00+13юз36670 0.0 1028240
13:00+17юз37560 0.0 1027442
16:00+16юз38620 0.0 1026339
19:00+11зюз38830 0.0 1027149
22:00+10зюз36900 0.0 1028146
26 февраля, пт
пт2601:00+9з25950 0.0 1028105
04:00+7з239650 0.0 102876
07:00+8зсз269775 1.1 1029241
10:00+8з3693100 1.0 1029337
13:00+9з4874100 1.0 1030756
16:00+9зсз4868100 0.0 10291180
19:00+5зсз3108050 0.0 1030312
22:00+5зсз4108033 0.0 1030467
27 февраля, сб
сб2701:00+3зсз4108932 0.1 1031415
04:00+2зсз410949 0.0 1031473
07:00+3зсз489249 0.0 1032625
10:00+3сз4789100 0.0 1033529
13:00+5зсз458199 0.0 1034623
16:00+5зсз468085 0.0 1034642
19:00+4зсз368786 0.0 1035308
22:00+2зсз229363 0.0 103657
28 февраля, вс
вс2801:00+1зсз259741 0.0 1036126
04:00+1зсз239764 0.0 103690
07:000зсз129760 0.0 103625
10:00+4зсз227712 0.0 1036404
13:00+8ссз11566 0.0 1036647
16:00+8с11540 0.0 1035615
19:00+4вюв11690 0.0 103522
22:00+2ю117338 0.0 103622
1 марта, пн
пн101:00+2ю017621 0.0 103622
04:00+4ю128497 0.0 103623
07:00+3юв128979 0.0 103727
10:00+6юв237221 0.0 1038364
13:00+9юв245611 0.0 1038855
16:00+9юв34580 0.0 1038827
19:00+4вюв24760 0.0 103895
22:00+3юв37840 0.0 1038169